Date,TemperatureHighF,TemperatureAvgF,TemperatureLowF,DewpointHighF,DewpointAvgF,DewpointLowF,HumidityHigh,HumidityAvg,HumidityLow,PressureMaxIn,PressureMinIn,WindSpeedMaxMPH,WindSpeedAvgMPH,GustSpeedMaxMPH,PrecipitationSumIn
2013-1-1,73.6,66.0,54.7,68.1,62.5,52.1,94,89,79,30.09,29.92,18,3,36,0.04
2013-1-2,56.8,50.6,44.4,53.9,46.7,41.4,91,87,82,30.18,29.97,16,4,32,0.04
2013-1-3,45.1,41.5,34.0,41.7,37.9,30.5,92,87,78,30.36,30.17,16,2,32,0.26
2013-1-4,55.2,42.7,34.0,37.4,33.7,29.7,88,72,47,30.43,30.31,20,4,38,0.00
2013-1-5,54.1,47.7,40.1,40.6,36.5,31.6,77,66,53,30.36,30.23,16,6,32,0.00
2013-1-6,50.5,48.5,45.1,46.8,42.6,39.9,88,80,71,30.27,30.17,17,5,33,0.04
2013-1-7,60.6,48.6,37.2,42.8,39.7,34.5,90,73,49,30.32,30.18,20,6,39,0.00
2013-1-8,66.6,57.7,47.7,59.5,51.7,39.1,88,80,71,30.25,30.13,18,7,35,0.00
2013-1-9,68.2,64.4,58.8,65.6,61.7,55.8,95,91,85,30.23,30.15,18,7,36,0.00
2013-1-10,72.5,67.3,63.1,68.7,65.1,61.1,96,92,87,30.23,30.00,29,10,56,0.43
2013-1-11,77.9,70.0,63.3,70.7,66.3,61.0,94,88,75,30.14,30.04,16,4,31,0.00
2013-1-12,77.5,71.2,67.3,70.8,67.6,65.5,95,89,76,30.10,29.96,24,7,47,0.00
2013-1-13,76.5,72.2,70.0,71.1,69.0,67.5,93,90,83,30.00,29.93,20,8,38,0.00
2013-1-14,76.6,63.4,50.7,71.4,60.4,48.4,93,90,82,30.09,29.99,15,5,29,0.00
2013-1-15,73.2,61.4,50.5,71.2,59.5,48.4,95,93,90,30.04,29.91,14,1,28,0.59
2013-1-16,67.3,52.2,45.1,65.5,50.2,43.0,94,93,91,30.04,29.91,12,1,23,0.47
2013-1-17,49.8,43.1,37.9,43.0,37.8,33.8,92,82,68,30.34,30.02,30,6,59,0.02
2013-1-18,57.0,44.5,36.0,41.1,36.8,32.5,89,76,51,30.51,30.33,22,4,43,0.00
2013-1-19,63.7,49.3,35.8,48.7,41.3,32.6,89,75,56,30.39,30.22,18,3,35,0.00
2013-1-20,63.7,50.0,36.9,51.5,42.6,34.1,90,77,54,30.27,30.12,17,2,33,0.00
2013-1-21,65.1,51.9,37.6,49.5,42.1,34.6,90,71,50,30.21,30.11,15,1,29,0.00
2013-1-22,58.5,47.1,39.0,40.8,36.0,31.6,83,66,47,30.36,30.19,20,4,38,0.00
2013-1-23,65.8,50.8,34.9,50.7,43.2,31.6,89,76,57,30.40,30.28,14,1,27,0.00
2013-1-24,70.0,56.0,40.6,58.4,49.8,37.4,89,80,66,30.34,30.22,13,1,25,0.00
2013-1-25,70.7,58.1,45.7,60.5,52.3,42.9,91,82,64,30.29,30.15,14,2,28,0.00
2013-1-26,72.5,61.4,51.4,64.2,56.1,47.9,91,83,69,30.25,30.16,14,1,26,0.00
2013-1-27,70.9,60.4,51.4,62.4,56.0,49.2,93,86,70,30.31,30.22,15,2,30,0.00
2013-1-28,73.9,64.4,54.5,66.0,60.5,51.9,95,88,74,30.28,30.14,21,5,40,0.00
2013-1-29,76.8,71.7,67.1,70.9,68.4,64.7,93,90,81,30.14,29.86,30,8,60,0.00
2013-1-30,75.4,63.5,45.0,71.0,59.2,35.4,93,86,69,30.11,29.68,28,8,55,0.45
2013-1-31,56.3,47.4,38.5,41.5,35.0,32.1,82,63,40,30.28,30.10,16,5,31,0.00